Location: Northcutt
(34.7304°N, 84.4305°W)
Time: 05:52:10
(UTC+00:00)

Vanguard 2 - Pass Details

Date: 08 October 2022
Orbit: 553 x 2933 km, 32.9° (Epoch: 04 December)

Event Time Altitude Azimuth Distance (km) Brightness Sun altitude
Rises 16:06:46 0° 231° (SW) 3,566 11.1 45.2°
Reaches altitude 10° 16:08:59 10° 226° (SW) 2,846 10.7 45.4°
Maximum altitude 16:15:49 51° 152° (SSE) 1,775 12.6 46.1°
Drops below altitude 10° 16:27:10 10° 82° (E) 4,640 11.7 47.0°
Sets 16:31:48 0° 78° (ENE) 6,003 12.2 47.3°
